Change the Weather History Date:

Sunday, May 4, 2014

  Actual Average (KJFX) Record (KJFX)
Temperature  
Mean Temperature 66 °F -  
Max Temperature 84 °F 75 °F 89 °F (2014)
Min Temperature 48 °F 49 °F 31 °F (1971)
Cooling Degree Days 1    
Growing Degree Days 16 (Base 50)    
Moisture  
Dew Point 50 °F    
Average Humidity 58    
Maximum Humidity 93    
Minimum Humidity 27    
Precipitation  
Precipitation 0.00 in - - ()
Sea Level Pressure  
Sea Level Pressure 30.13 in    
Wind  
Wind Speed 2 mph (WSW)    
Max Wind Speed 10 mph    
Max Gust Speed 20 mph    
Visibility 10 miles    
Events      
Averages and records for this station are not official NWS values.
T = Trace of Precipitation, MM = Missing Value Source: NWS Daily Summary

Daily Weather History Graph

Daily Weather History Graph

Search for Another Location

Airport or City:

Trip Planner

Search our weather history database for the weather conditions in past years. The results will help you decide how hot, cold, wet, or windy it might be!

Date:

Astronomy

May. 04, 2014 Rise Set
Actual Time 5:57 AM CDT 7:37 PM CDT
Civil Twilight 5:30 AM CDT 8:04 PM CDT
Nautical Twilight 4:58 AM CDT 8:36 PM CDT
Astronomical Twilight 4:24 AM CDT 9:11 PM CDT
Moon 10:22 AM CDT (5/4) No Moon Set
Length of Visible Light 14h 33m
Length of Day
13h 39m
Waxing Crescent, 28% of the Moon is Illuminated
May 4
Waxing Crescent
May 6
First Quarter
May 14
Full
May 21
Last Quarter
May 28
New

Hourly Weather History & Observations

Time (CDT) Temp. Dew Point Humidity Pressure Visibility Wind Dir Wind Speed Gust Speed Precip Events Conditions
12:56 AM 52.0 °F 48.9 °F 89% 30.14 in 10.0 mi Calm Calm - N/A   Clear
1:56 AM 50.9 °F 48.9 °F 93% 30.12 in 10.0 mi Calm Calm - N/A   Clear
2:56 AM 48.9 °F 46.9 °F 93% 30.12 in 10.0 mi Calm Calm - N/A   Clear
3:56 AM 48.9 °F 46.9 °F 93% 30.12 in 10.0 mi Calm Calm - N/A   Clear
4:56 AM 50.9 °F 46.9 °F 86% 30.13 in 10.0 mi Calm Calm - N/A   Clear
5:56 AM 50.0 °F 45.9 °F 86% 30.14 in 10.0 mi Calm Calm - N/A   Clear
6:56 AM 52.9 °F 48.9 °F 86% 30.17 in 10.0 mi Calm Calm - N/A   Clear
7:56 AM 63.9 °F 46.9 °F 54% 30.17 in 10.0 mi Calm Calm - N/A   Clear
8:56 AM 68.9 °F 47.8 °F 47% 30.19 in 10.0 mi Calm Calm - N/A   Clear
9:56 AM 72.9 °F 50.9 °F 46% 30.19 in 10.0 mi WSW 6.9 mph - N/A   Clear
10:56 AM 77.0 °F 50.0 °F 39% 30.19 in 10.0 mi WSW 6.9 mph - N/A   Clear
11:56 AM 81.0 °F 50.9 °F 35% 30.17 in 10.0 mi Variable 5.8 mph - N/A   Clear
12:56 PM 81.9 °F 50.0 °F 33% 30.15 in 10.0 mi WSW 9.2 mph - N/A   Clear
1:56 PM 83.8 °F 48.9 °F 30% 30.13 in 10.0 mi WSW 10.4 mph - N/A   Clear
2:56 PM 84.9 °F 46.9 °F 27% 30.11 in 10.0 mi SW 9.2 mph 19.6 mph N/A   Clear
4:56 PM 83.8 °F 46.9 °F 28% 30.09 in 10.0 mi West 10.4 mph 18.4 mph N/A   Clear
5:56 PM 82.9 °F 47.8 °F 29% 30.08 in 10.0 mi WSW 9.2 mph - N/A   Clear
6:56 PM 79.9 °F 50.9 °F 36% 30.08 in 10.0 mi SW 4.6 mph - N/A   Clear
7:56 PM 70.9 °F 54.0 °F 55% 30.08 in 10.0 mi Calm Calm - N/A   Clear
8:56 PM 68.0 °F 54.9 °F 63% 30.08 in 10.0 mi Calm Calm - N/A   Clear
9:56 PM 63.9 °F 54.9 °F 72% 30.09 in 10.0 mi Calm Calm - N/A   Clear
10:56 PM 66.9 °F 52.9 °F 61% 30.09 in 10.0 mi SSW 6.9 mph - N/A   Clear
11:56 PM 68.0 °F 52.9 °F 58% 30.09 in 10.0 mi SSW 6.9 mph - N/A   Clear